This is the latest recevied weather packets stored in our database for station/object F5ZQC-13. If no packets are shown the sender has not sent any weather packets the latest 10 day(s).
| Time | Temp. | Humidity | Pressure | Rain* | Wind** | Luminosity | Snow |
|---|---|---|---|---|---|---|---|
| 1777961590 | 13.33° C | 57% | 1010.1 hPa | 0 mm | - | - | - |
| 1777961469 | 12.78° C | 59% | 1010.2 hPa | 0 mm | - | - | - |
| 1777961224 | 12.78° C | 56% | 1010 hPa | 0 mm | - | - | - |
| 1777960980 | 12.78° C | 57% | 1010.1 hPa | 0 mm | - | - | - |
| 1777960735 | 12.78° C | 60% | 1010.4 hPa | 0 mm | - | - | - |
| 1777960613 | 12.78° C | 57% | 1010.4 hPa | 0 mm | - | - | - |
| 1777960489 | 12.22° C | 54% | 1010.1 hPa | 0 mm | - | - | - |
| 1777960373 | 12.22° C | 58% | 1010.2 hPa | 0 mm | - | - | - |
| 1777960246 | 12.22° C | 58% | 1010.1 hPa | 0 mm | - | - | - |
| 1777960124 | 12.22° C | 59% | 1010.1 hPa | 0 mm | - | - | - |
| 1777960000 | 12.22° C | 57% | 1010.1 hPa | 0 mm | - | - | - |
| 1777959880 | 12.22° C | 58% | 1010.3 hPa | 0 mm | - | - | - |
| 1777959509 | 12.22° C | 57% | 1010.1 hPa | 0 mm | - | - | - |
| 1777959385 | 12.22° C | 58% | 1010 hPa | 0 mm | - | - | - |
| 1777959263 | 12.22° C | 58% | 1010.1 hPa | 0 mm | - | - | - |
| 1777959142 | 12.22° C | 54% | 1009.9 hPa | 0 mm | - | - | - |
| 1777959021 | 12.22° C | 55% | 1010 hPa | 0 mm | - | - | - |
| 1777958775 | 12.22° C | 58% | 1009.9 hPa | 0 mm | - | - | - |
| 1777958653 | 12.22° C | 58% | 1010 hPa | 0 mm | - | - | - |
| 1777958409 | 12.22° C | 58% | 1009.7 hPa | 0 mm | - | - | - |
| 1777958287 | 11.67° C | 53% | 1009.8 hPa | 0 mm | - | - | - |
| 1777958269 | 11.67° C | 58% | 1009.7 hPa | 0 mm | - | - | - |
| 1777958170 | 11.67° C | 59% | 1009.8 hPa | 0 mm | - | - | - |
| 1777958042 | 11.67° C | 58% | 1009.7 hPa | 0 mm | - | - | - |
| 1777957920 | 11.67° C | 63% | 1009.8 hPa | 0 mm | - | - | - |
* Rain since midnight (hover to see other rain measurements)
** Current wind speed in m/s (hover to see current wind gust speed)